Location: Castelnau
(43.6639°N, 0.8431°W)
Time: 17:24:27
(UTC+00:00)

BREEZE-M DEB (TANK) - Pass Details

Date: 13 January 2026
Orbit: 990 x 35628 km, 47.4° (Epoch: 11 February)

Event Time Altitude Azimuth Distance (km) Brightness Sun altitude
Rises 05:46:46 0° 235° (SW) 8,099 7.8 -19.1°
Reaches altitude 10° 05:53:29 10° 234° (SW) 5,177 6.9 -17.9°
Maximum altitude 06:03:13 69° 153° (SSE) 1,210 4.1 -16.2°
Drops below altitude 10° 06:08:17 10° 70° (ENE) 2,768 6.7 -15.3°
Sets 06:10:35 0° 67° (ENE) 3,896 7.5 -14.9°
